CFG47T EDDV-EGSS

Flight info

Callsign CFG47T
Flight time 1h 7m
Altitude 38000
Route VAXEV2Y/09L VAXEV Y347 WEZTE DCT ABNED L980 XAMAN
Aircraft A320/M-SDE3FGHIRWY/LB1

Departure

Time 2026-05-01 13:33
Airport Hannover Airport (EDDV)

Arrival

Time 2026-05-01 14:40
Airport London Stansted Airport (EGSS)
Time Latitude Longitude Altitude Speed Heading
2026-05-01 13:19 52.45811 9.69811 181 ft 0 kts 330°
2026-05-01 13:22 52.45812 9.69810 181 ft 0 kts 330°
2026-05-01 13:22 52.45799 9.69822 182 ft 2 kts 330°
2026-05-01 13:22 52.45785 9.69835 182 ft 2 kts 330°
2026-05-01 13:22 52.45770 9.69849 174 ft 2 kts 330°
2026-05-01 13:23 52.45756 9.69862 183 ft 2 kts 330°
2026-05-01 13:23 52.45742 9.69876 183 ft 2 kts 330°
2026-05-01 13:23 52.45728 9.69889 198 ft 2 kts 330°
2026-05-01 13:23 52.45713 9.69902 200 ft 2 kts 330°
2026-05-01 13:24 52.45699 9.69916 192 ft 2 kts 329°
2026-05-01 13:24 52.45685 9.69932 202 ft 2 kts 322°
2026-05-01 13:24 52.45671 9.69950 202 ft 3 kts 304°
2026-05-01 13:25 52.45665 9.69971 197 ft 0 kts 275°
2026-05-01 13:25 52.45667 9.69933 190 ft 14 kts 275°
2026-05-01 13:26 52.45674 9.69739 185 ft 17 kts 273°
2026-05-01 13:26 52.45680 9.69552 184 ft 16 kts 278°
2026-05-01 13:26 52.45749 9.69433 182 ft 15 kts 301°
2026-05-01 13:26 52.45762 9.69267 179 ft 15 kts 274°
2026-05-01 13:27 52.45777 9.69112 180 ft 13 kts 302°
2026-05-01 13:27 52.45839 9.69021 179 ft 13 kts 323°
2026-05-01 13:27 52.46133 9.68655 179 ft 27 kts 322°
2026-05-01 13:28 52.46386 9.68338 181 ft 14 kts 322°
2026-05-01 13:28 52.46469 9.68234 180 ft 15 kts 322°
2026-05-01 13:29 52.46529 9.67846 181 ft 16 kts 273°
2026-05-01 13:29 52.46541 9.67402 181 ft 21 kts 272°
2026-05-01 13:30 52.46572 9.66215 176 ft 32 kts 272°
2026-05-01 13:31 52.46592 9.65488 179 ft 27 kts 273°
2026-05-01 13:31 52.46762 9.65290 176 ft 14 kts 22°
2026-05-01 13:32 52.46815 9.65648 173 ft 35 kts 93°
2026-05-01 13:33 52.46648 9.70246 1333 ft 174 kts 95°
2026-05-01 13:33 52.46608 9.74678 2546 ft 210 kts 78°
2026-05-01 13:34 52.48899 9.77425 4315 ft 232 kts
2026-05-01 13:34 52.51869 9.75448 5944 ft 244 kts 306°
2026-05-01 13:35 52.52703 9.69826 6959 ft 276 kts 252°
2026-05-01 13:35 52.52102 9.66803 7812 ft 281 kts 247°
2026-05-01 13:35 52.50788 9.60649 9636 ft 289 kts 247°
2026-05-01 13:36 52.50113 9.57508 10522 ft 294 kts 247°
2026-05-01 13:36 52.49399 9.54207 10923 ft 317 kts 247°
2026-05-01 13:36 52.47860 9.47097 12186 ft 340 kts 248°
2026-05-01 13:37 52.47069 9.43411 13004 ft 345 kts 248°
2026-05-01 13:37 52.46266 9.39665 13802 ft 350 kts 248°
2026-05-01 13:37 52.45452 9.35875 14552 ft 354 kts 248°
2026-05-01 13:37 52.44626 9.32046 15272 ft 358 kts 248°
2026-05-01 13:38 52.42947 9.24303 16728 ft 365 kts 248°
2026-05-01 13:38 52.42085 9.20344 17453 ft 369 kts 248°
2026-05-01 13:38 52.41215 9.16351 18175 ft 373 kts 248°
2026-05-01 13:39 52.40364 9.12379 18834 ft 378 kts 251°
2026-05-01 13:39 52.39825 9.08135 19453 ft 383 kts 262°
2026-05-01 13:39 52.39783 9.03747 20070 ft 389 kts 273°
2026-05-01 13:39 52.39999 8.99313 20712 ft 392 kts 273°
2026-05-01 13:40 52.40206 8.94841 21353 ft 395 kts 273°
2026-05-01 13:40 52.40401 8.90335 21976 ft 398 kts 273°
2026-05-01 13:40 52.40593 8.85798 22615 ft 401 kts 273°
2026-05-01 13:40 52.40784 8.81220 23259 ft 404 kts 273°
2026-05-01 13:41 52.40976 8.76604 23902 ft 407 kts 273°
2026-05-01 13:41 52.41169 8.71956 24433 ft 410 kts 273°
2026-05-01 13:41 52.41361 8.67337 24948 ft 413 kts 273°
2026-05-01 13:41 52.41556 8.62595 25469 ft 415 kts 274°
2026-05-01 13:42 52.41750 8.57859 25969 ft 418 kts 274°
2026-05-01 13:42 52.41944 8.53152 26435 ft 420 kts 274°
2026-05-01 13:42 52.42139 8.48359 26906 ft 423 kts 274°
2026-05-01 13:42 52.42332 8.43532 27374 ft 425 kts 274°
2026-05-01 13:43 52.42521 8.38666 27834 ft 428 kts 274°
2026-05-01 13:43 52.42707 8.33789 28281 ft 430 kts 274°
2026-05-01 13:43 52.42888 8.28941 28700 ft 433 kts 274°
2026-05-01 13:43 52.43074 8.24006 29134 ft 435 kts 274°
2026-05-01 13:44 52.43202 8.19016 29556 ft 438 kts 269°
2026-05-01 13:44 52.43104 8.14002 29973 ft 441 kts 269°
2026-05-01 13:44 52.43000 8.09019 30364 ft 443 kts 269°
2026-05-01 13:44 52.42895 8.03949 30691 ft 445 kts 269°
2026-05-01 13:45 52.42791 7.98856 31012 ft 447 kts 269°
2026-05-01 13:45 52.42684 7.93753 31348 ft 449 kts 269°
2026-05-01 13:45 52.42572 7.88634 31651 ft 450 kts 269°
2026-05-01 13:45 52.42458 7.83533 31964 ft 452 kts 269°
2026-05-01 13:46 52.42337 7.78398 32410 ft 450 kts 269°
2026-05-01 13:46 52.42214 7.73289 32850 ft 448 kts 269°
2026-05-01 13:46 52.42088 7.68185 33297 ft 446 kts 268°
2026-05-01 13:46 52.41960 7.63124 33751 ft 444 kts 268°
2026-05-01 13:47 52.41832 7.58126 34205 ft 442 kts 268°
2026-05-01 13:47 52.41704 7.53101 34625 ft 439 kts 268°
2026-05-01 13:47 52.41577 7.48105 35017 ft 438 kts 268°
2026-05-01 13:47 52.41448 7.43129 35399 ft 436 kts 268°
2026-05-01 13:48 52.41320 7.38161 35763 ft 434 kts 268°
2026-05-01 13:48 52.41191 7.33264 36110 ft 433 kts 268°
2026-05-01 13:48 52.41057 7.28325 36446 ft 432 kts 268°
2026-05-01 13:48 52.40921 7.23410 36776 ft 431 kts 268°
2026-05-01 13:49 52.40783 7.18510 37091 ft 429 kts 268°
2026-05-01 13:49 52.40642 7.13680 37383 ft 429 kts 268°
2026-05-01 13:49 52.40498 7.08792 37666 ft 428 kts 267°
2026-05-01 13:49 52.40154 7.03956 37958 ft 427 kts 259°
2026-05-01 13:50 52.39552 6.99190 38213 ft 427 kts 258°
2026-05-01 13:50 52.38356 6.89740 38297 ft 426 kts 258°
2026-05-01 13:51 52.37151 6.80230 38292 ft 425 kts 258°
2026-05-01 13:51 52.35953 6.70752 38290 ft 425 kts 258°
2026-05-01 13:52 52.34752 6.61333 38290 ft 424 kts 258°
2026-05-01 13:52 52.33535 6.51925 38290 ft 424 kts 258°
2026-05-01 13:53 52.32298 6.42449 38290 ft 425 kts 258°
2026-05-01 13:53 52.30450 6.28274 38292 ft 425 kts 258°
2026-05-01 13:54 52.29208 6.18892 38289 ft 424 kts 257°
2026-05-01 13:54 52.27946 6.09459 38289 ft 424 kts 257°
2026-05-01 13:55 52.26692 6.00120 38287 ft 423 kts 257°
2026-05-01 13:55 52.25437 5.90770 38284 ft 423 kts 257°
2026-05-01 13:56 52.24161 5.81351 38285 ft 422 kts 257°
2026-05-01 13:56 52.22883 5.72027 38279 ft 422 kts 257°
2026-05-01 13:57 52.21814 5.64246 38278 ft 422 kts 257°
2026-05-01 13:57 52.20313 5.53369 38258 ft 422 kts 256°
2026-05-01 13:58 52.19011 5.44028 38260 ft 422 kts 256°
2026-05-01 13:58 52.17715 5.34751 38260 ft 422 kts 256°
2026-05-01 13:59 52.16519 5.26267 38259 ft 422 kts 256°
2026-05-01 13:59 52.15196 5.16947 38260 ft 422 kts 256°
2026-05-01 14:00 52.13874 5.07665 38256 ft 422 kts 256°
2026-05-01 14:00 52.12545 4.98386 38254 ft 422 kts 255°
2026-05-01 14:01 52.11204 4.89067 38254 ft 422 kts 255°
2026-05-01 14:01 52.09957 4.80436 38257 ft 422 kts 255°
2026-05-01 14:02 52.08591 4.71141 38231 ft 423 kts 255°
2026-05-01 14:02 52.07224 4.61883 38224 ft 423 kts 255°
2026-05-01 14:03 52.05855 4.52579 38222 ft 424 kts 255°
2026-05-01 14:03 52.04471 4.43243 38220 ft 424 kts 255°
2026-05-01 14:04 52.03071 4.33939 38215 ft 424 kts 255°
2026-05-01 14:04 52.01906 4.26194 38216 ft 424 kts 255°
2026-05-01 14:05 52.00271 4.15372 38221 ft 425 kts 255°
2026-05-01 14:05 51.98850 4.06034 38227 ft 425 kts 255°
2026-05-01 14:06 51.97431 3.96717 38205 ft 426 kts 255°
2026-05-01 14:06 51.96721 3.92102 37928 ft 426 kts 254°
2026-05-01 14:06 51.96001 3.87427 37648 ft 426 kts 255°
2026-05-01 14:07 51.95598 3.82653 37377 ft 428 kts 266°
2026-05-01 14:07 51.95484 3.77812 37108 ft 429 kts 266°
2026-05-01 14:07 51.95413 3.74604 36932 ft 430 kts 266°
2026-05-01 14:08 51.95166 3.63282 36322 ft 432 kts 266°
2026-05-01 14:08 51.95055 3.58418 36066 ft 432 kts 266°
2026-05-01 14:08 51.94977 3.55184 35898 ft 432 kts 265°
2026-05-01 14:08 51.94855 3.50294 35645 ft 432 kts 265°
2026-05-01 14:09 51.94693 3.43864 35323 ft 430 kts 265°
2026-05-01 14:09 51.94610 3.40588 35150 ft 429 kts 265°
2026-05-01 14:09 51.94490 3.35833 34907 ft 427 kts 265°
2026-05-01 14:09 51.94367 3.31003 34664 ft 425 kts 265°
2026-05-01 14:10 51.94242 3.26221 34422 ft 424 kts 265°
2026-05-01 14:10 51.94115 3.21498 34179 ft 422 kts 265°
2026-05-01 14:10 51.93986 3.16746 33902 ft 420 kts 265°
2026-05-01 14:10 51.93854 3.12013 33630 ft 419 kts 265°
2026-05-01 14:11 51.93722 3.07294 33357 ft 417 kts 265°
2026-05-01 14:11 51.93461 2.97997 32829 ft 414 kts 264°
2026-05-01 14:11 51.93326 2.93343 32564 ft 412 kts 264°
2026-05-01 14:12 51.93188 2.88710 32302 ft 411 kts 264°
2026-05-01 14:12 51.93049 2.84074 32039 ft 409 kts 264°
2026-05-01 14:12 51.92909 2.79483 31787 ft 407 kts 264°
2026-05-01 14:12 51.92769 2.74967 31537 ft 406 kts 264°
2026-05-01 14:13 51.92627 2.70384 31134 ft 405 kts 264°
2026-05-01 14:13 51.92483 2.65828 30640 ft 402 kts 263°
2026-05-01 14:13 51.92339 2.61368 30141 ft 400 kts 263°
2026-05-01 14:13 51.92193 2.56876 29573 ft 397 kts 263°
2026-05-01 14:14 51.92047 2.52421 29015 ft 395 kts 263°
2026-05-01 14:14 51.91899 2.47989 28475 ft 392 kts 263°
2026-05-01 14:14 51.91753 2.43605 27947 ft 390 kts 263°
2026-05-01 14:14 51.91606 2.39206 27411 ft 388 kts 263°
2026-05-01 14:15 51.91460 2.34851 26894 ft 387 kts 262°
2026-05-01 14:15 51.91311 2.30514 26381 ft 385 kts 262°
2026-05-01 14:15 51.91159 2.26176 25894 ft 383 kts 262°
2026-05-01 14:15 51.91009 2.21920 25308 ft 384 kts 262°
2026-05-01 14:16 51.90855 2.17590 24710 ft 385 kts 262°
2026-05-01 14:16 51.90699 2.13245 24124 ft 387 kts 262°
2026-05-01 14:16 51.90540 2.08879 23502 ft 387 kts 262°
2026-05-01 14:16 51.90379 2.04569 22830 ft 388 kts 262°
2026-05-01 14:17 51.90216 2.00202 22170 ft 390 kts 262°
2026-05-01 14:17 51.90050 1.95812 21519 ft 390 kts 262°
2026-05-01 14:17 51.89883 1.91426 20888 ft 391 kts 262°
2026-05-01 14:17 51.89714 1.87021 20269 ft 391 kts 262°
2026-05-01 14:18 51.89488 1.82623 19660 ft 389 kts 256°
2026-05-01 14:18 51.88750 1.78469 19076 ft 382 kts 245°
2026-05-01 14:18 51.87757 1.74554 18547 ft 381 kts 246°
2026-05-01 14:18 51.87360 1.71717 18123 ft 386 kts 261°
2026-05-01 14:19 51.87801 1.65968 17331 ft 394 kts 284°
2026-05-01 14:19 51.88948 1.61992 17315 ft 383 kts 298°
2026-05-01 14:19 51.90350 1.58506 17759 ft 357 kts 300°
2026-05-01 14:19 51.91786 1.55298 18256 ft 357 kts 309°
2026-05-01 14:20 51.93723 1.52745 18093 ft 362 kts 330°
2026-05-01 14:20 51.97530 1.47993 17487 ft 343 kts 306°
2026-05-01 14:20 51.99003 1.44859 16566 ft 357 kts 301°
2026-05-01 14:21 52.00457 1.41538 15954 ft 362 kts 302°
2026-05-01 14:21 52.01955 1.38322 15511 ft 362 kts 305°
2026-05-01 14:21 52.03570 1.35170 15098 ft 361 kts 308°
2026-05-01 14:22 52.06968 1.29200 14330 ft 358 kts 311°
2026-05-01 14:22 52.08686 1.26321 14115 ft 350 kts 310°
2026-05-01 14:22 52.10101 1.23230 13987 ft 333 kts 293°
2026-05-01 14:22 52.10860 1.19812 13780 ft 318 kts 276°
2026-05-01 14:23 52.10977 1.16278 13459 ft 308 kts 259°
2026-05-01 14:23 52.10536 1.12913 13088 ft 301 kts 250°
2026-05-01 14:23 52.09988 1.09698 12731 ft 300 kts 250°
2026-05-01 14:23 52.09444 1.06463 12377 ft 299 kts 250°
2026-05-01 14:24 52.08903 1.03198 12044 ft 298 kts 251°
2026-05-01 14:24 52.08372 0.99939 11760 ft 296 kts 251°
2026-05-01 14:24 52.07845 0.96720 11426 ft 293 kts 251°
2026-05-01 14:24 52.07310 0.93534 11082 ft 291 kts 251°
2026-05-01 14:25 52.06781 0.90406 10734 ft 289 kts 251°
2026-05-01 14:25 52.06247 0.87255 10374 ft 287 kts 251°
2026-05-01 14:25 52.05719 0.84130 9996 ft 286 kts 251°
2026-05-01 14:25 52.05198 0.81052 9610 ft 284 kts 251°
2026-05-01 14:26 52.04675 0.77971 9243 ft 280 kts 251°
2026-05-01 14:26 52.03646 0.71916 9127 ft 278 kts 251°
2026-05-01 14:26 52.03128 0.68887 8647 ft 279 kts 251°
2026-05-01 14:27 52.02619 0.65898 8472 ft 268 kts 251°
2026-05-01 14:27 52.02140 0.63071 8338 ft 256 kts 251°
2026-05-01 14:27 52.01684 0.60326 8168 ft 246 kts 254°
2026-05-01 14:28 52.01382 0.54845 7776 ft 242 kts 262°
2026-05-01 14:28 52.01260 0.52123 7586 ft 241 kts 262°
2026-05-01 14:28 52.01137 0.49422 7382 ft 239 kts 262°
2026-05-01 14:28 52.01014 0.46757 7194 ft 239 kts 262°
2026-05-01 14:29 52.00890 0.44067 6990 ft 239 kts 262°
2026-05-01 14:29 52.00765 0.41383 6800 ft 238 kts 262°
2026-05-01 14:30 52.00380 0.33389 6074 ft 237 kts 261°
2026-05-01 14:30 52.00256 0.30768 5839 ft 235 kts 261°
2026-05-01 14:30 51.99918 0.28209 5637 ft 229 kts 244°
2026-05-01 14:31 51.98030 0.24221 5258 ft 224 kts 221°
2026-05-01 14:31 51.96841 0.22460 5060 ft 245 kts 220°
2026-05-01 14:31 51.95577 0.20624 4859 ft 242 kts 220°
2026-05-01 14:31 51.94341 0.18833 4643 ft 234 kts 220°
2026-05-01 14:32 51.93143 0.17091 4439 ft 227 kts 220°
2026-05-01 14:32 51.91987 0.15404 4233 ft 219 kts 220°
2026-05-01 14:32 51.90877 0.13762 4057 ft 211 kts 220°
2026-05-01 14:32 51.89839 0.12210 3985 ft 201 kts 220°
2026-05-01 14:33 51.88800 0.10660 3987 ft 202 kts 220°
2026-05-01 14:33 51.87785 0.09141 3980 ft 201 kts 220°
2026-05-01 14:33 51.86759 0.07604 3985 ft 201 kts 221°
2026-05-01 14:33 51.85740 0.06045 3985 ft 201 kts 221°
2026-05-01 14:34 51.84719 0.04480 3925 ft 203 kts 221°
2026-05-01 14:34 51.83707 0.02932 3800 ft 201 kts 221°
2026-05-01 14:34 51.82696 0.01373 3671 ft 201 kts 221°
2026-05-01 14:34 51.81672 -0.00191 3547 ft 202 kts 216°
2026-05-01 14:35 51.80439 -0.01192 3436 ft 198 kts 189°
2026-05-01 14:35 51.79073 -0.01061 3383 ft 202 kts 159°
2026-05-01 14:35 51.77897 0.00128 3318 ft 201 kts 137°
2026-05-01 14:35 51.77148 0.01977 3341 ft 194 kts 113°
2026-05-01 14:36 51.76928 0.04059 3245 ft 185 kts 91°
2026-05-01 14:36 51.77208 0.06006 3094 ft 176 kts 69°
2026-05-01 14:36 51.77877 0.07599 2926 ft 171 kts 47°
2026-05-01 14:36 51.78751 0.08907 2734 ft 170 kts 46°
2026-05-01 14:37 51.79587 0.10151 2520 ft 161 kts 45°
2026-05-01 14:37 51.80393 0.11354 2315 ft 155 kts 45°
2026-05-01 14:37 51.81182 0.12531 2098 ft 152 kts 43°
2026-05-01 14:37 51.81954 0.13684 1914 ft 152 kts 49°
2026-05-01 14:38 51.82729 0.14841 1705 ft 149 kts 48°
2026-05-01 14:38 51.83484 0.15969 1495 ft 147 kts 45°
2026-05-01 14:38 51.84221 0.17071 1304 ft 145 kts 48°
2026-05-01 14:38 51.84967 0.18188 1106 ft 147 kts 47°
2026-05-01 14:39 51.85717 0.19309 928 ft 146 kts 48°
2026-05-01 14:39 51.86470 0.20437 703 ft 149 kts 47°
2026-05-01 14:39 51.87225 0.21566 516 ft 148 kts 46°
2026-05-01 14:39 51.87976 0.22694 352 ft 146 kts 47°
2026-05-01 14:40 51.88632 0.23708 334 ft 107 kts 42°
2026-05-01 14:40 51.89037 0.24335 339 ft 52 kts 52°
2026-05-01 14:40 51.89115 0.24596 338 ft 15 kts 67°
2026-05-01 14:40 51.89150 0.24729 348 ft 0 kts 67°
2026-05-01 14:41 51.89158 0.24757 347 ft 10 kts 65°
2026-05-01 14:41 51.89168 0.24858 342 ft 9 kts 112°
2026-05-01 14:41 51.89166 0.24957 347 ft 9 kts 50°
2026-05-01 14:42 51.89208 0.25028 343 ft 8 kts 44°
2026-05-01 14:42 51.89240 0.25097 353 ft 8 kts 56°
2026-05-01 14:42 51.89273 0.25183 345 ft 13 kts 58°
2026-05-01 14:42 51.89334 0.25282 350 ft 14 kts 43°
2026-05-01 14:43 51.89404 0.25385 348 ft 8 kts 42°
2026-05-01 14:43 51.89420 0.25466 352 ft 9 kts 108°
2026-05-01 14:43 51.89380 0.25573 353 ft 13 kts 117°
2026-05-01 14:43 51.89322 0.25698 344 ft 15 kts 132°
2026-05-01 14:44 51.89251 0.25821 351 ft 5 kts 133°
2026-05-01 14:44 51.89238 0.25875 349 ft 1 kts 54°
2026-05-01 14:44 51.89252 0.25895 350 ft 4 kts 41°
2026-05-01 14:45 51.89267 0.25917 346 ft 0 kts 42°